Temp
-10 -10 -10 -10 -10 -10 -10 -10 -9 -9 -9 -9 -9 -9 -9 -9 -9 -9 -9 -9 -9 -9 -9 -9 -9 -9 -9 -8 -8 -8 -8 -8 -8 -8 -8 -8 -8 -8 -8 -9 -9 -9 -9
-10 -10 -10 -10 -10 -10 -10 -10 -10 -10 -10 -10 -10 -10 -9 -9 -9 -9 -9 -9 -10 -9 -9 -9 -9 -8 -8 -8 -8 -8 -8 -8 -8 -8 -8 -8 -8 -8 -9 -9 -9 -9 -9
-10 -10 -10 -10 -10 -10 -10 -10 -10 -10 -10 -10 -10 -10 -10 -10 -9 -9 -9 -9 -9 -9 -9 -9 -9 -9 -8 -8 -8 -8 -8 -8 -8 -8 -8 -8 -8 -9 -9 -9 -9 -9 -9
-11 -11 -10 -10 -10 -10 -10 -10 -10 -10 -10 -10 -10 -10 -10 -10 -10 -9 -9 -9 -9 -9 -9 -9 -9 -9 -9 -9 -8 -8 -8 -8 -8 -8 -8 -9 -8 -9 -9 -9 -9 -9 -9
-11 -11 -11 -11 -11 -11 -10 -10 -10 -10 -10 -10 -10 -10 -10 -10 -10 -10 -10 -9 -9 -9 -9 -9 -9 -9 -9 -9 -9 -8 -8 -8 -9 -9 -9 -9 -8 -8 -8 -9 -9 -9 -9
-11 -11 -11 -11 -11 -11 -11 -11 -10 -10 -10 -10 -10 -10 -10 -10 -10 -10 -10 -10 -10 -9 -9 -9 -9 -9 -9 -9 -9 -9 -9 -8 -8 -8 -9 -9 -9 -8 -8 -8 -8 -9 -9
-12 -12 -12 -12 -11 -11 -11 -11 -11 -11 -10 -10 -10 -10 -10 -10 -10 -10 -10 -10 -10 -10 -9 -9 -9 -9 -9 -9 -9 -9 -9 -9 -9 -9 -8 -9 -9 -9 -9 -8 -8 -8 -9
-12 -12 -12 -12 -12 -12 -12 -12 -11 -11 -11 -11 -11 -10 -10 -10 -10 -10 -10 -10 -10 -10 -10 -10 -10 -9 -10 -10 -9 -9 -9 -9 -9 -9 -9 -9 -9 -9 -9 -9 -8 -9 -9
-12 -12 -12 -12 -12 -12 -12 -12 -12 -12 -11 -11 -11 -11 -11 -11 -11 -11 -10 -10 -10 -10 -10 -10 -10 -10 -9 -10 -10 -9 -9 -9 -9 -9 -9 -9 -9 -9 -9 -9 -9 -9 -9
-12 -12 -12 -12 -12 -12 -12 -12 -12 -12 -12 -12 -12 -11 -11 -11 -11 -11 -11 -11 -11 -11 -10 -11 -11 -10 -10 -10 -10 -10 -10 -10 -9 -9 -9 -9 -9 -9 -9 -9 -9 -9 -9
-12 -12 -12 -12 -12 -12 -12 -12 -12 -12 -12 -12 -12 -12 -12 -12 -11 -11 -11 -11 -11 -11 -11 -11 -11 -11 -11 -10 -10 -10 -10 -10 -10 -10 -10 -9 -9 -9 -9 -9 -9 -9 -9
-12 -12 -12 -12 -12 -12 -12 -12 -12 -12 -12 -12 -12 -12 -12 -12 -12 -12 -11 -11 -11 -11 -11 -11 -11 -11 -11 -11 -11 -10 -10 -10 -10 -10 -10 -10 -10 -10 -9 -9 -9 -9 -9
-11 -11 -12 -12 -12 -12 -12 -12 -12 -12 -12 -12 -13 -13 -12 -12 -12 -12 -12 -11 -11 -11 -11 -11 -11 -11 -11 -11 -11 -11 -11 -11 -10 -10 -10 -10 -10 -10 -10 -9 -9 -9 -9
-12 -11 -11 -11 -12 -12 -12 -12 -12 -12 -12 -12 -12 -12 -12 -12 -12 -12 -12 -12 -12 -11 -11 -11 -11 -11 -11 -11 -11 -12 -12 -11 -11 -11 -11 -10 -10 -10 -10 -10 -10 -9 -10
-12 -12 -12 -12 -11 -11 -12 -12 -12 -12 -12 -12 -12 -12 -12 -12 -12 -12 -12 -12 -12 -12 -12 -12 -12 -11 -12 -11 -11 -11 -11 -11 -11 -11 -11 -11 -11 -11 -10 -10 -10 -10 -10
-12 -12 -12 -12 -12 -12 -12 -11 -11 -12 -12 -12 -12 -12 -12 -12 -12 -12 -12 -12 -12 -12 -12 -12 -12 -12 -12 -12 -12 -11 -11 -11 -11 -12 -12 -11 -11 -11 -11 -11 -11 -11 -10
-12 -12 -12 -13 -13 -13 -13 -12 -12 -11 -11 -12 -12 -12 -12 -12 -12 -12 -12 -12 -12 -12 -12 -12 -12 -12 -12 -12 -12 -12 -12 -12 -12 -12 -12 -12 -12 -12 -11 -11 -11 -11 -11
-13 -13 -13 -13 -13 -13 -13 -12 -12 -12 -12 -11 -12 -12 -12 -12 -12 -12 -12 -12 -12 -12 -12 -12 -12 -12 -12 -12 -12 -12 -12 -12 -12 -12 -12 -12 -12 -12 -11 -12 -12 -11 -11
-13 -13 -13 -13 -13 -13 -13 -13 -13 -13 -13 -13 -12 -12 -12 -12 -12 -12 -12 -12 -12 -12 -12 -12 -12 -12 -12 -12 -12 -12 -12 -12 -12 -12 -12 -12 -12 -12 -12 -12 -12 -12 -12
-13 -13 -13 -13 -13 -13 -13 -13 -13 -13 -13 -13 -14 -13 -13 -13 -13 -13 -13 -13 -13 -13 -13 -13 -13 -13 -13 -13 -12 -12 -12 -12 -12 -12 -12 -12 -12 -12 -12 -12 -12 -12 -12
-13 -14 -14 -14 -14 -14 -13 -13 -13 -14 -14 -14 -14 -13 -14 -14 -13 -13 -13 -13 -13 -13 -13 -14 -14 -14 -13 -13 -13 -13 -12 -12 -12 -12 -12 -12 -13 -13 -13 -13 -13 -13 -12
-14 -14 -14 -14 -14 -14 -14 -14 -14 -14 -14 -14 -14 -14 -14 -14 -14 -14 -14 -14 -14 -14 -14 -14 -14 -14 -14 -14 -14 -13 -13 -13 -12 -13 -13 -13 -13 -13 -13 -13 -13 -13 -13
-14 -15 -14 -14 -15 -15 -15 -15 -14 -14 -14 -14 -14 -14 -14 -14 -14 -14 -14 -15 -15 -14 -14 -14 -15 -15 -15 -14 -14 -14 -14 -13 -13 -13 -12 -13 -13 -13 -13 -13 -13 -13 -14
-15 -15 -15 -15 -15 -15 -15 -15 -15 -15 -15 -15 -15 -15 -15 -15 -15 -15 -15 -15 -15 -15 -15 -15 -15 -15 -15 -15 -15 -15 -14 -14 -14 -13 -13 -13 -13 -13 -13 -13 -13 -13 -13
-15 -15 -15 -16 -16 -16 -16 -16 -16 -16 -15 -15 -15 -15 -16 -16 -15 -15 -15 -15 -15 -15 -15 -15 -15 -15 -15 -15 -15 -15 -15 -15 -14 -14 -14 -13 -13 -13 -13 -13 -13 -13 -13
-16 -16 -16 -16 -16 -16 -16 -16 -16 -16 -16 -16 -16 -16 -16 -16 -16 -16 -16 -16 -16 -16 -16 -16 -16 -16 -16 -16 -16 -16 -15 -15 -15 -15 -14 -14 -14 -14 -13 -13 -13 -13 -13
Height
5842 5843 5844 5845 5846 5848 5849 5849 5851 5852 5852 5853 5854 5855 5856 5856 5857 5858 5859 5860 5860 5862 5862 5863 5864 5865 5866 5867 5868 5869 5871 5872 5874 5875 5877 5878 5879 5879 5880 5880 5881 5881 5882
5840 5841 5842 5843 5844 5846 5847 5848 5850 5850 5851 5852 5853 5854 5855 5856 5857 5857 5858 5859 5860 5861 5862 5863 5864 5864 5866 5867 5868 5870 5872 5873 5874 5876 5877 5878 5880 5880 5881 5882 5882 5882 5882
5839 5840 5840 5841 5842 5843 5845 5846 5847 5848 5850 5851 5851 5852 5854 5854 5856 5857 5857 5858 5859 5860 5861 5862 5864 5864 5865 5867 5868 5869 5871 5872 5874 5875 5876 5878 5879 5881 5881 5882 5883 5884 5884
5837 5838 5839 5839 5840 5840 5842 5843 5844 5846 5847 5848 5849 5850 5851 5853 5854 5855 5856 5857 5857 5858 5860 5861 5863 5864 5864 5865 5867 5868 5870 5871 5872 5874 5876 5877 5879 5880 5881 5882 5883 5884 5884
5834 5835 5836 5837 5837 5838 5839 5839 5841 5842 5844 5845 5846 5848 5849 5850 5851 5853 5854 5855 5856 5857 5858 5859 5861 5862 5864 5864 5865 5867 5868 5870 5871 5872 5874 5876 5878 5879 5880 5881 5883 5884 5884
5832 5833 5833 5834 5834 5835 5836 5837 5838 5839 5840 5841 5843 5844 5845 5847 5848 5849 5851 5853 5854 5855 5856 5857 5859 5860 5862 5863 5864 5865 5866 5868 5870 5871 5873 5875 5876 5877 5879 5880 5881 5883 5884
5829 5830 5830 5830 5831 5832 5832 5833 5834 5835 5836 5837 5838 5840 5842 5843 5844 5846 5847 5849 5851 5852 5853 5854 5856 5858 5859 5860 5861 5863 5865 5867 5868 5870 5871 5873 5874 5876 5877 5878 5880 5882 5883
5826 5826 5827 5827 5827 5828 5829 5830 5831 5831 5832 5833 5835 5836 5837 5839 5840 5842 5844 5845 5847 5848 5850 5851 5853 5855 5857 5858 5858 5860 5863 5864 5866 5867 5869 5870 5872 5873 5875 5876 5878 5880 5881
5822 5823 5823 5823 5824 5824 5825 5826 5827 5828 5828 5829 5831 5832 5834 5835 5836 5838 5840 5841 5843 5845 5846 5848 5849 5851 5853 5855 5855 5857 5860 5862 5863 5865 5866 5867 5869 5871 5872 5874 5876 5877 5879
5819 5819 5819 5819 5819 5819 5820 5821 5822 5823 5824 5825 5827 5828 5829 5831 5832 5833 5835 5837 5839 5841 5842 5844 5846 5847 5850 5851 5852 5853 5855 5857 5859 5861 5862 5864 5866 5867 5868 5871 5872 5874 5876
5815 5815 5815 5815 5816 5816 5816 5817 5817 5818 5819 5821 5822 5823 5825 5826 5827 5829 5830 5832 5834 5836 5837 5839 5840 5842 5844 5846 5848 5849 5851 5853 5855 5857 5858 5860 5861 5862 5865 5866 5868 5870 5873
5809 5810 5810 5811 5811 5812 5812 5812 5813 5813 5814 5815 5816 5817 5819 5820 5822 5824 5825 5827 5828 5830 5831 5833 5835 5836 5838 5840 5843 5845 5847 5849 5850 5852 5854 5855 5856 5858 5860 5862 5864 5866 5868
5806 5803 5803 5804 5805 5806 5806 5807 5807 5808 5809 5810 5811 5812 5813 5814 5816 5817 5819 5821 5823 5825 5826 5828 5830 5832 5833 5835 5837 5839 5841 5844 5845 5847 5849 5850 5851 5852 5854 5857 5859 5861 5863
5803 5803 5803 5800 5799 5800 5801 5801 5802 5803 5803 5804 5805 5806 5807 5809 5810 5811 5813 5814 5816 5818 5820 5822 5824 5826 5827 5830 5832 5833 5834 5837 5839 5841 5843 5844 5845 5846 5848 5852 5853 5855 5857
5801 5801 5800 5799 5797 5795 5795 5796 5796 5797 5798 5799 5800 5801 5802 5803 5804 5806 5807 5809 5810 5812 5814 5816 5817 5819 5821 5823 5825 5828 5829 5831 5832 5834 5835 5838 5839 5841 5842 5845 5847 5848 5851
5794 5794 5795 5794 5794 5794 5793 5789 5789 5791 5793 5794 5795 5796 5797 5798 5800 5801 5802 5803 5804 5806 5807 5809 5810 5812 5813 5815 5818 5820 5822 5824 5826 5827 5828 5830 5832 5834 5836 5838 5840 5841 5843
5787 5787 5787 5787 5787 5787 5788 5789 5788 5785 5785 5786 5788 5790 5791 5792 5794 5795 5797 5798 5799 5800 5801 5803 5804 5805 5806 5808 5810 5812 5814 5816 5818 5820 5822 5823 5825 5827 5830 5831 5833 5834 5836
5781 5780 5779 5779 5779 5779 5780 5779 5780 5781 5782 5780 5779 5780 5782 5784 5786 5788 5789 5791 5793 5794 5796 5796 5797 5798 5799 5800 5802 5804 5806 5808 5811 5813 5815 5817 5818 5820 5821 5824 5825 5827 5828
5773 5771 5771 5770 5771 5771 5770 5770 5770 5771 5771 5772 5773 5772 5773 5774 5776 5778 5780 5781 5783 5785 5787 5789 5790 5791 5792 5792 5794 5796 5798 5800 5802 5804 5806 5809 5811 5813 5812 5816 5818 5820 5822
5766 5763 5761 5761 5760 5761 5761 5760 5760 5761 5760 5761 5761 5764 5765 5766 5766 5768 5770 5772 5773 5775 5776 5778 5780 5782 5783 5783 5785 5786 5788 5791 5793 5796 5798 5799 5801 5804 5807 5808 5810 5812 5814
5755 5753 5751 5750 5748 5748 5748 5748 5748 5748 5748 5749 5749 5750 5750 5753 5756 5756 5756 5759 5762 5764 5765 5768 5770 5771 5772 5773 5776 5777 5778 5780 5783 5785 5788 5791 5794 5795 5796 5799 5800 5802 5804
5742 5740 5739 5738 5736 5735 5734 5734 5733 5734 5734 5734 5736 5737 5739 5739 5740 5742 5745 5745 5748 5751 5753 5756 5758 5760 5761 5762 5765 5767 5770 5772 5773 5774 5776 5779 5782 5784 5787 5789 5790 5792 5794
5728 5726 5725 5723 5721 5720 5719 5719 5718 5718 5719 5719 5720 5721 5722 5724 5726 5728 5729 5732 5733 5736 5739 5741 5744 5747 5749 5751 5753 5755 5759 5761 5763 5763 5765 5767 5769 5772 5775 5777 5780 5782 5784
5712 5709 5707 5706 5704 5703 5702 5701 5700 5700 5701 5702 5704 5705 5706 5707 5710 5711 5713 5715 5717 5719 5722 5726 5729 5733 5735 5737 5740 5743 5746 5749 5751 5754 5754 5756 5758 5761 5763 5766 5769 5771 5774
5693 5691 5689 5687 5686 5684 5683 5682 5682 5681 5681 5683 5684 5686 5688 5690 5691 5693 5696 5698 5700 5703 5706 5709 5713 5717 5721 5724 5726 5728 5732 5735 5739 5742 5745 5745 5746 5748 5751 5754 5756 5759 5762
5673 5670 5668 5665 5663 5661 5660 5659 5659 5658 5658 5660 5662 5665 5668 5670 5672 5674 5675 5678 5681 5684 5688 5691 5695 5700 5705 5708 5711 5714 5717 5721 5725 5727 5731 5735 5735 5737 5739 5742 5745 5747 5750
Wind_Speed
7 7 7 7 7 6 5 4 5 6 7 6 5 5 4 3 4 5 6 6 5 7 5 3 2 5 7 11 11 10 11 11 10 10 9 11 10 10 10 9 9 8 7
6 8 9 9 9 9 8 8 7 5 7 8 8 8 7 6 4 4 7 8 8 8 7 5 3 4 6 9 10 11 11 10 9 9 8 9 10 9 9 8 8 7 7
6 7 7 8 9 11 11 10 10 9 8 8 9 10 9 8 7 6 6 10 11 11 10 8 6 4 5 7 9 10 10 10 9 8 8 9 10 10 8 7 5 5 5
8 8 8 8 10 10 11 13 13 13 13 11 10 11 12 11 11 9 8 8 12 13 13 11 10 8 7 7 9 10 11 11 10 9 9 10 10 12 10 7 6 4 3
11 10 10 11 11 11 12 13 15 16 16 15 14 12 12 13 13 13 11 10 10 12 15 14 13 12 10 9 9 11 12 12 12 11 10 11 12 11 11 10 8 6 4
13 14 14 13 13 14 14 15 15 16 17 18 17 16 15 14 14 15 15 13 13 12 14 17 15 14 14 13 12 11 12 13 13 13 13 12 13 12 11 12 11 10 8
14 16 17 17 17 16 16 17 17 17 18 19 20 20 19 18 17 16 16 17 16 15 14 14 17 16 16 16 16 15 13 12 14 14 14 14 14 14 13 12 12 13 11
11 13 15 17 18 18 18 18 19 20 20 20 20 20 22 21 21 20 18 18 19 18 17 14 15 17 17 17 19 18 16 15 14 14 16 16 16 17 17 15 14 13 15
11 12 13 15 16 18 19 20 20 21 22 22 22 21 21 22 22 22 22 21 20 21 21 20 20 18 17 19 20 21 19 18 18 16 15 17 18 19 19 19 16 15 14
13 13 14 15 15 16 17 19 21 22 23 24 25 25 23 22 22 21 21 24 23 23 23 24 23 22 21 19 21 23 23 22 22 21 20 19 19 21 22 22 20 18 17
14 15 15 16 16 17 18 18 19 21 23 25 26 27 27 26 25 23 22 21 23 25 25 25 24 25 25 23 23 22 22 24 26 25 25 24 24 23 23 25 24 23 21
18 18 18 18 18 18 18 19 19 20 20 22 26 28 29 29 29 28 27 26 25 24 25 27 27 29 30 26 25 25 24 24 24 25 27 29 29 28 27 25 26 26 27
20 22 22 21 21 21 20 20 20 21 21 21 21 24 27 29 30 31 31 31 30 29 29 27 27 29 29 29 30 28 26 27 27 26 25 27 30 31 31 30 28 30 31
21 21 24 26 25 24 24 22 22 22 22 21 21 21 22 23 25 29 31 32 33 33 32 32 31 30 31 32 32 34 32 30 28 29 28 27 28 30 32 32 32 31 31
25 23 25 26 27 25 24 23 22 20 20 19 19 19 21 22 23 24 25 26 28 30 33 34 35 35 34 33 33 34 35 35 36 34 31 30 30 29 31 33 33 35 34
29 29 28 28 28 28 26 24 22 21 20 18 17 18 17 16 17 20 23 25 27 27 29 30 33 35 36 37 36 35 35 35 36 37 36 35 32 33 32 31 33 36 37
31 32 31 32 30 30 30 28 28 27 27 26 25 24 22 22 21 21 21 20 21 22 27 31 32 33 35 36 37 37 38 38 36 36 38 39 37 36 37 34 33 34 37
34 34 34 34 34 33 33 33 33 33 33 34 33 31 31 30 30 29 29 29 30 29 29 27 29 34 37 38 37 37 37 38 39 39 38 38 39 37 38 38 35 36 36
38 39 39 39 38 39 38 38 38 37 37 38 40 39 37 35 35 35 35 34 34 35 35 36 36 34 35 37 40 42 41 39 38 37 38 40 39 39 39 40 40 41 39
44 44 46 45 44 43 43 43 42 41 41 40 38 40 43 41 40 40 39 38 38 38 39 40 40 41 39 39 40 41 43 44 44 42 40 39 40 42 43 42 42 41 42
49 49 50 52 52 52 51 51 50 49 47 47 46 46 43 43 46 46 45 45 45 45 46 45 44 44 42 43 43 41 42 42 43 45 45 44 43 42 42 43 44 44 43
53 56 56 57 58 58 59 58 57 56 55 55 55 54 53 53 51 47 48 49 49 49 50 48 47 47 45 46 46 46 45 44 43 43 45 47 47 47 46 44 44 45 47
57 58 59 61 62 62 62 63 63 63 62 61 61 60 61 59 58 57 54 53 53 53 53 53 53 53 49 48 48 49 49 49 48 48 46 46 48 50 49 49 47 45 45
59 60 61 61 63 64 65 66 65 66 67 66 65 66 65 65 64 63 62 61 60 59 58 58 58 57 55 53 51 51 52 52 51 51 51 48 47 48 51 52 52 50 49
64 65 65 66 67 69 70 72 72 72 72 72 71 69 67 68 67 67 66 65 64 64 63 61 60 60 60 60 58 55 55 55 54 54 52 53 52 51 50 52 54 54 53
71 72 74 75 76 77 78 79 80 81 80 79 78 77 76 74 72 72 70 70 69 67 67 67 66 64 63 62 62 61 59 57 57 58 57 55 55 54 55 53 53 55 56
Wind_Direction
256 246 240 241 246 247 242 231 230 218 219 212 201 201 218 220 207 208 207 207 202 199 219 209 154 127 145 161 179 189 173 169 160 162 159 156 144 129 123 118 109 103 104
271 254 248 242 244 248 246 241 243 249 238 235 232 223 216 230 232 235 223 214 207 212 231 232 206 161 148 159 169 183 182 178 169 171 173 171 168 148 139 123 113 108 100
277 269 263 259 251 248 249 247 245 252 253 248 245 244 237 232 233 244 246 229 224 220 227 235 223 200 180 177 179 181 191 187 188 183 188 191 190 179 163 145 124 118 118
279 276 275 271 260 256 254 251 249 249 251 248 251 251 247 241 240 236 243 246 235 234 233 231 229 217 206 203 197 197 198 199 206 204 204 204 205 200 188 180 169 152 131
274 275 274 269 265 260 259 257 251 249 249 249 248 248 251 250 243 242 239 240 242 245 242 238 225 226 219 215 212 210 210 213 216 217 219 215 213 210 203 207 196 195 198
276 279 277 271 264 261 256 256 254 249 248 249 247 247 246 249 247 243 242 239 242 241 249 244 237 226 224 222 223 217 217 219 223 222 220 220 220 215 212 212 217 216 211
264 262 265 267 267 265 264 261 260 258 252 248 247 244 246 246 248 247 243 239 239 241 243 249 245 240 230 227 227 224 222 224 225 225 225 221 221 223 222 220 227 229 225
272 268 265 265 267 266 265 262 260 258 259 256 251 248 245 245 245 245 246 242 238 238 239 244 260 245 241 236 235 233 225 226 228 230 230 229 227 229 225 226 237 242 237
285 281 277 273 270 267 265 264 261 259 256 256 257 253 248 246 245 244 242 244 243 240 240 240 243 255 247 244 242 240 235 233 232 234 238 237 235 233 232 230 233 237 244
278 277 276 275 272 271 270 265 258 254 255 256 254 254 253 249 247 246 244 243 243 243 242 243 243 242 246 245 248 245 241 240 240 239 241 243 245 241 237 233 235 238 238
272 272 271 272 273 272 270 269 267 262 255 253 254 253 253 253 252 250 248 245 245 244 243 244 244 245 243 243 243 247 247 244 244 244 245 244 244 247 244 238 236 239 240
255 261 263 264 266 267 268 268 267 266 262 256 253 254 254 252 253 253 252 251 248 248 246 245 246 246 244 243 248 246 247 246 247 247 246 248 248 246 245 247 243 240 241
253 253 253 255 259 260 259 261 262 262 262 260 257 256 256 255 254 253 253 253 254 252 252 251 250 249 250 250 246 244 249 247 247 249 249 247 247 248 247 245 243 243 242
268 267 268 267 258 256 256 254 255 256 256 256 256 255 257 258 256 257 257 255 255 255 254 254 252 251 250 248 248 254 254 251 249 248 250 251 250 249 248 246 247 244 243
276 270 267 268 267 262 256 256 253 249 250 252 254 254 254 255 256 257 259 260 260 259 258 256 255 254 252 251 251 250 250 252 254 248 246 248 251 252 251 249 246 248 245
285 282 277 270 269 266 258 243 239 243 245 248 251 255 257 262 266 263 261 262 262 263 264 263 260 259 258 255 251 250 251 253 252 256 256 244 244 248 251 251 249 249 249
279 279 277 275 270 265 266 265 260 250 244 245 249 253 253 256 256 261 268 274 275 275 272 268 266 265 262 259 258 256 252 251 253 253 255 259 256 252 248 251 252 249 251
277 276 276 272 269 267 265 261 264 263 261 256 250 248 250 253 256 258 262 270 275 276 277 277 277 272 267 265 264 260 257 254 253 253 254 255 257 259 257 252 254 254 253
275 274 272 272 269 267 264 263 262 261 262 263 262 257 253 252 254 256 257 259 265 269 273 275 276 273 274 270 266 264 263 260 255 253 252 253 254 254 257 255 254 253 255
276 274 274 271 268 266 265 262 261 260 257 257 260 270 267 260 258 259 258 257 258 262 268 273 275 276 274 271 270 267 263 261 261 259 255 251 252 253 255 257 258 255 255
277 275 273 273 272 269 266 264 262 260 259 258 256 252 252 261 262 258 257 257 258 262 266 272 273 274 272 270 270 268 267 264 262 261 259 258 256 254 252 253 255 256 256
275 275 274 273 271 269 268 266 264 263 260 259 258 258 257 253 251 256 260 257 257 258 262 266 267 270 267 267 268 268 265 265 265 264 262 260 257 256 256 254 252 254 257
276 274 273 272 272 271 269 267 265 263 261 260 258 258 258 256 256 255 252 254 256 256 258 260 264 266 265 263 265 267 268 267 265 265 265 263 260 258 257 256 255 254 254
274 272 271 270 269 268 267 267 265 264 262 261 260 259 259 259 258 257 258 257 255 253 253 256 259 262 263 263 262 264 266 265 265 264 265 264 264 262 259 258 257 256 256
277 275 273 270 268 266 266 265 264 263 261 261 260 258 258 259 258 258 258 257 257 258 256 254 255 257 260 263 263 261 262 264 265 262 260 262 263 263 263 259 257 257 257
279 277 275 273 271 270 269 267 266 266 265 263 261 259 260 259 259 258 257 257 255 255 256 256 255 255 255 257 260 262 261 261 263 263 262 261 263 264 263 263 263 259 257